This is the latest recevied weather packets stored in our database for station/object HS1WDC-1. If no packets are shown the sender has not sent any weather packets the latest 1 day(s).
| Time | Temp. | Humidity | Pressure | Rain* | Wind** | Luminosity | Snow |
|---|---|---|---|---|---|---|---|
| 1778103928 | 35° C | 55% | 1006 hPa | - | - | 0 W/m² | - |
| 1778100231 | 34.44° C | 57% | 1006 hPa | - | - | 0 W/m² | - |
| 1778096508 | 35° C | 56% | 1006 hPa | - | - | 0 W/m² | - |
| 1778093735 | 35.56° C | 54% | 1006 hPa | - | - | 0 W/m² | - |
| 1778090962 | 35.56° C | 53% | 1006 hPa | - | - | 0 W/m² | - |
| 1778090038 | 36.11° C | 52% | 1006 hPa | - | - | 0 W/m² | - |
| 1778087265 | 36.11° C | 50% | 1007 hPa | - | - | 0 W/m² | - |
| 1778086340 | 36.11° C | 49% | 1007 hPa | - | - | 0 W/m² | - |
| 1778085416 | 36.11° C | 49% | 1007 hPa | - | - | 0 W/m² | - |
| 1778082643 | 37.22° C | 50% | 1007 hPa | - | - | 0 W/m² | - |
| 1778081719 | 36.67° C | 49% | 1007 hPa | - | - | 0 W/m² | - |
| 1778078946 | 36.67° C | 46% | 1006 hPa | - | - | 0 W/m² | - |
| 1778078022 | 37.22° C | 46% | 1006 hPa | - | - | 0 W/m² | - |
| 1778075249 | 38.33° C | 45% | 1006 hPa | - | - | 0 W/m² | - |
| 1778073400 | 38.89° C | 44% | 1005 hPa | - | - | 0 W/m² | - |
| 1778072476 | 38.33° C | 45% | 1005 hPa | - | - | 0 W/m² | - |
| 1778070627 | 38.89° C | 44% | 1005 hPa | - | - | 0 W/m² | - |
| 1778069703 | 39.44° C | 43% | 1004 hPa | - | - | 0 W/m² | - |
| 1778067854 | 40° C | 41% | 1004 hPa | - | - | 0 W/m² | - |
| 1778066930 | 40° C | 40% | 1004 hPa | - | - | 0 W/m² | - |
| 1778065081 | 41.67° C | 37% | 1004 hPa | - | - | 0 W/m² | - |
| 1778062308 | 42.22° C | 36% | 1003 hPa | - | - | 0 W/m² | - |
| 1778057687 | 42.22° C | 32% | 1003 hPa | - | - | 0 W/m² | - |
| 1778056762 | 42.78° C | 30% | 1004 hPa | - | - | 0 W/m² | - |
| 1778055838 | 42.22° C | 32% | 1004 hPa | - | - | 0 W/m² | - |
* Rain since midnight (hover to see other rain measurements)
** Current wind speed in m/s (hover to see current wind gust speed)